�N����,����,����,����,����,�C��,���x,�~����,�S�V����,�ő�u�ԕ���,,,,,
,,,,,,,,,����,����,����,�N��,,
yyyy/mm/dd,hh:mm:ss,(16),16����,m/s,��,%,mm,KW/�u,(16),16����,m/s,Time,,
2018/2/1,1:00:00,-7.8,#N/A,62.6,0,0,,,,,,,,
2018/2/1,2:00:00,-7,#N/A,62.5,0,0,,,,,,,,
2018/2/1,3:00:00,-7.1,#N/A,64.7,0,0,,,,,,,,
2018/2/1,4:00:00,-9.2,#N/A,63.3,0,0,,,,,,,,
2018/2/1,5:00:00,-9.8,#N/A,67.4,0,0,,,,,,,,
2018/2/1,6:00:00,-10.4,#N/A,75.3,0,0,,,,,,,,
2018/2/1,7:00:00,-11,#N/A,79.4,0,0.01,,,,,,,,
2018/2/1,8:00:00,-9.2,#N/A,76.7,0,0.14,,,,,,,,
2018/2/1,9:00:00,-6.3,#N/A,46.6,0,0.36,,,,,,,,
2018/2/1,10:00:00,-4.4,#N/A,32.5,0,0.5,,,,,,,,
2018/2/1,11:00:00,-3.6,#N/A,31.9,0,0.56,,,,,,,,
2018/2/1,12:00:00,-1.4,#N/A,22.8,0,0.64,,,,,,,,
2018/2/1,13:00:00,-1.2,#N/A,20.6,0,0.62,,,,,,,,
2018/2/1,14:00:00,-1.6,#N/A,21.4,0,0.54,,,,,,,,
2018/2/1,15:00:00,-2.5,#N/A,24.3,0.5,0.4,,,,,,,,
2018/2/1,16:00:00,-4.3,#N/A,31.9,0.5,0.21,,,,,,,,
2018/2/1,17:00:00,-12.6,#N/A,43.9,0,0.03,,,,,,,,
2018/2/1,18:00:00,-11.4,#N/A,54.2,0,0,,,,,,,,
2018/2/1,19:00:00,-6.9,#N/A,70.6,0,0,,,,,,,,
2018/2/1,20:00:00,-8,#N/A,66.1,0,0,,,,,,,,
2018/2/1,21:00:00,-7.1,#N/A,64.1,0,0,,,,,,,,
2018/2/1,22:00:00,-9.9,#N/A,62,0,0,,,,,,,,
2018/2/1,23:00:00,-8,#N/A,73,0,0,,,,,,,,
2018/2/1,0:00:00,-7.6,#N/A,63.4,0,0,,,,,,,,
2018/2/2,1:00:00,-8.4,#N/A,61.9,0,0,,,,,,,,
2018/2/2,2:00:00,-8.2,#N/A,65,0,0,,,,,,,,
2018/2/2,3:00:00,-8.9,#N/A,67.1,0,0,,,,,,,,
2018/2/2,4:00:00,-9.1,#N/A,70.4,0,0,,,,,,,,
2018/2/2,5:00:00,-9.4,#N/A,72,0,0,,,,,,,,
2018/2/2,6:00:00,-9.7,#N/A,72.9,0,0,,,,,,,,
2018/2/2,7:00:00,-10.3,#N/A,76.5,0,0.01,,,,,,,,
2018/2/2,8:00:00,-9.2,#N/A,77.3,0,0.07,,,,,,,,
2018/2/2,9:00:00,-7.2,#N/A,68,0,0.18,,,,,,,,
2018/2/2,10:00:00,-6.1,#N/A,57.9,0,0.28,,,,,,,,
2018/2/2,11:00:00,-5,#N/A,57.3,0,0.36,,,,,,,,
2018/2/2,12:00:00,-4.1,#N/A,53.7,0,0.37,,,,,,,,
2018/2/2,13:00:00,-3.5,#N/A,62.1,0,0.38,,,,,,,,
2018/2/2,14:00:00,-3.2,#N/A,58.8,0,0.38,,,,,,,,
2018/2/2,15:00:00,-2.8,#N/A,59.7,0,0.24,,,,,,,,
2018/2/2,16:00:00,-4.2,#N/A,59.5,0,0.09,,,,,,,,
2018/2/2,17:00:00,-4.2,#N/A,67.4,0,0.01,,,,,,,,
2018/2/2,18:00:00,-4.4,#N/A,70.7,0,0,,,,,,,,
2018/2/2,19:00:00,-4.6,#N/A,70.2,0,0,,,,,,,,
2018/2/2,20:00:00,-4.9,#N/A,71.2,0,0,,,,,,,,
2018/2/2,21:00:00,-5.3,#N/A,75.6,0,0,,,,,,,,
2018/2/2,22:00:00,-5.3,#N/A,80.8,0,0,,,,,,,,
2018/2/2,23:00:00,-5.4,#N/A,83.1,0,0,,,,,,,,
2018/2/2,0:00:00,-5.4,#N/A,82.5,0,0,,,,,,,,
2018/2/3,1:00:00,-5.5,#N/A,80.4,0,0,,,,,,,,
2018/2/3,2:00:00,-6,#N/A,78.7,0,0,,,,,,,,
2018/2/3,3:00:00,-7,#N/A,78.9,0,0,,,,,,,,
2018/2/3,4:00:00,-6.8,#N/A,81.6,0,0,,,,,,,,
2018/2/3,5:00:00,-7.4,#N/A,81.3,0,0,,,,,,,,
2018/2/3,6:00:00,-7,#N/A,79.1,0,0,,,,,,,,
2018/2/3,7:00:00,-7.6,#N/A,78.9,0,0.01,,,,,,,,
2018/2/3,8:00:00,-6.9,#N/A,77.8,0,0.06,,,,,,,,
2018/2/3,9:00:00,-6.5,#N/A,72.4,0,0.12,,,,,,,,
2018/2/3,10:00:00,-5,#N/A,63.4,0,0.27,,,,,,,,
2018/2/3,11:00:00,-3.6,#N/A,48.8,0,0.55,,,,,,,,
2018/2/3,12:00:00,-3.2,#N/A,43.6,0,0.48,,,,,,,,
2018/2/3,13:00:00,-2.9,#N/A,55.5,0,0.39,,,,,,,,
2018/2/3,14:00:00,-2.8,#N/A,59.2,0,0.24,,,,,,,,
2018/2/3,15:00:00,-3.2,#N/A,58.6,0,0.15,,,,,,,,
2018/2/3,16:00:00,-3.6,#N/A,60,0,0.07,,,,,,,,
2018/2/3,17:00:00,-3.8,#N/A,66.3,0,0.01,,,,,,,,
2018/2/3,18:00:00,-3.8,#N/A,69.4,0,0,,,,,,,,
2018/2/3,19:00:00,-3.9,#N/A,67.7,0,0,,,,,,,,
2018/2/3,20:00:00,-3.7,#N/A,71.8,0,0,,,,,,,,
2018/2/3,21:00:00,-4.7,#N/A,81.9,0,0,,,,,,,,
2018/2/3,22:00:00,-4.7,#N/A,82.1,0,0,,,,,,,,
2018/2/3,23:00:00,-3.5,#N/A,84.2,0,0,,,,,,,,
2018/2/3,0:00:00,-4,#N/A,85.2,0,0,,,,,,,,
2018/2/4,1:00:00,-4.9,#N/A,89.1,0,0,,,,,,,,
2018/2/4,2:00:00,-5,#N/A,90.8,0,0,,,,,,,,
2018/2/4,3:00:00,-5.4,#N/A,91.3,0,0,,,,,,,,
2018/2/4,4:00:00,-5.3,#N/A,94,0,0,,,,,,,,
2018/2/4,5:00:00,-5.2,#N/A,94,0,0,,,,,,,,
2018/2/4,6:00:00,-5.3,#N/A,94.1,0,0,,,,,,,,
2018/2/4,7:00:00,-5.2,#N/A,94.9,0,0.01,,,,,,,,
2018/2/4,8:00:00,-5,#N/A,95,0,0.04,,,,,,,,
2018/2/4,9:00:00,-4.7,#N/A,92,0,0.14,,,,,,,,
2018/2/4,10:00:00,-4.2,#N/A,85.1,0,0.25,,,,,,,,
2018/2/4,11:00:00,-4.1,#N/A,86.4,0,0.24,,,,,,,,
2018/2/4,12:00:00,-3.8,#N/A,85.9,0,0.26,,,,,,,,
2018/2/4,13:00:00,-3.2,#N/A,82.1,0,0.31,,,,,,,,
2018/2/4,14:00:00,-3.2,#N/A,86.1,0,0.23,,,,,,,,
2018/2/4,15:00:00,-3,#N/A,89.4,0,0.14,,,,,,,,
2018/2/4,16:00:00,-2.5,#N/A,88.9,0,0.07,,,,,,,,
2018/2/4,17:00:00,-2.4,#N/A,90.6,0,0.02,,,,,,,,
2018/2/4,18:00:00,-2.3,#N/A,91.2,0,0,,,,,,,,
2018/2/4,19:00:00,-2.4,#N/A,92.9,0,0,,,,,,,,
2018/2/4,20:00:00,-2.4,#N/A,93.5,0,0,,,,,,,,
2018/2/4,21:00:00,-2.1,#N/A,92,0,0,,,,,,,,
2018/2/4,22:00:00,-2.2,#N/A,91.6,0,0,,,,,,,,
2018/2/4,23:00:00,-2,#N/A,92,0,0,,,,,,,,
2018/2/4,0:00:00,-2.2,#N/A,91.4,0,0,,,,,,,,
2018/2/5,1:00:00,-2.2,#N/A,92.8,0,0,,,,,,,,
2018/2/5,2:00:00,-2.3,#N/A,93.3,0,0,,,,,,,,
2018/2/5,3:00:00,-2.2,#N/A,94.4,0,0,,,,,,,,
2018/2/5,4:00:00,-2.2,#N/A,94.6,0,0,,,,,,,,
2018/2/5,5:00:00,-2.2,#N/A,94.9,0.5,0,,,,,,,,
2018/2/5,6:00:00,-2.2,#N/A,95.1,0,0,,,,,,,,
2018/2/5,7:00:00,-2.2,#N/A,95.3,0,0.01,,,,,,,,
2018/2/5,8:00:00,-2.1,#N/A,94.3,0.5,0.03,,,,,,,,
2018/2/5,9:00:00,-2,#N/A,91,0,0.08,,,,,,,,
2018/2/5,10:00:00,-1.5,#N/A,82.1,0,0.21,,,,,,,,
2018/2/5,11:00:00,-1,#N/A,58.9,0,0.47,,,,,,,,
2018/2/5,12:00:00,-0.2,#N/A,63.5,2.5,0.33,,,,,,,,
2018/2/5,13:00:00,-0.5,#N/A,58.8,1.5,0.31,,,,,,,,
2018/2/5,14:00:00,-1.4,#N/A,68,1,0.19,,,,,,,,
2018/2/5,15:00:00,-1.7,#N/A,79.4,1,0.09,,,,,,,,
2018/2/5,16:00:00,-2,#N/A,85.6,1.5,0.04,,,,,,,,
2018/2/5,17:00:00,-2.5,#N/A,88.7,1,0.01,,,,,,,,
2018/2/5,18:00:00,-2.6,#N/A,90.6,1,0,,,,,,,,
2018/2/5,19:00:00,-2.9,#N/A,91.2,0,0,,,,,,,,
2018/2/5,20:00:00,-4,#N/A,91.8,0.5,0,,,,,,,,
2018/2/5,21:00:00,-4.8,#N/A,92.4,0,0,,,,,,,,
2018/2/5,22:00:00,-5.6,#N/A,92.4,0.5,0,,,,,,,,
2018/2/5,23:00:00,-6.3,#N/A,91.5,0,0,,,,,,,,
2018/2/5,0:00:00,-7.3,#N/A,89.5,0,0,,,,,,,,
2018/2/6,1:00:00,-7.1,#N/A,90.9,0,0,,,,,,,,
2018/2/6,2:00:00,-7.8,#N/A,86.7,0,0,,,,,,,,
2018/2/6,3:00:00,-8.1,#N/A,87.2,0,0,,,,,,,,
2018/2/6,4:00:00,-9.6,#N/A,86,0,0,,,,,,,,
2018/2/6,5:00:00,-8.7,#N/A,87.2,0,0,,,,,,,,
2018/2/6,6:00:00,-8.6,#N/A,88.8,0,0,,,,,,,,
2018/2/6,7:00:00,-8.8,#N/A,89.2,0,0.01,,,,,,,,
2018/2/6,8:00:00,-7.8,#N/A,88.4,0,0.07,,,,,,,,
2018/2/6,9:00:00,-7.1,#N/A,82.1,0,0.13,,,,,,,,
2018/2/6,10:00:00,-6.1,#N/A,76.5,0,0.17,,,,,,,,
2018/2/6,11:00:00,-5.6,#N/A,75.8,0,0.19,,,,,,,,
2018/2/6,12:00:00,-4.9,#N/A,75.8,0,0.27,,,,,,,,
2018/2/6,13:00:00,-4.8,#N/A,73,0.5,0.36,,,,,,,,
2018/2/6,14:00:00,-4.7,#N/A,76.1,0.5,0.26,,,,,,,,
2018/2/6,15:00:00,-5.2,#N/A,78.9,0.5,0.14,,,,,,,,
2018/2/6,16:00:00,-5.6,#N/A,86.6,0.5,0.06,,,,,,,,
2018/2/6,17:00:00,-5.9,#N/A,91.8,0,0.02,,,,,,,,
2018/2/6,18:00:00,-7,#N/A,92.3,0,0,,,,,,,,
2018/2/6,19:00:00,-6.7,#N/A,91.6,0,0,,,,,,,,
2018/2/6,20:00:00,-5.9,#N/A,88.3,0,0,,,,,,,,
2018/2/6,21:00:00,-5.9,#N/A,87.3,0,0,,,,,,,,
2018/2/6,22:00:00,-6.7,#N/A,84.8,0,0,,,,,,,,
2018/2/6,23:00:00,-7.8,#N/A,85.4,0,0,,,,,,,,
2018/2/6,0:00:00,-8.7,#N/A,87.1,0,0,,,,,,,,
2018/2/7,1:00:00,-8.7,#N/A,89.6,0,0,,,,,,,,
2018/2/7,2:00:00,-8.8,#N/A,85.2,0,0,,,,,,,,
2018/2/7,3:00:00,-9,#N/A,84.4,0,0,,,,,,,,
2018/2/7,4:00:00,-9.4,#N/A,84.7,0,0,,,,,,,,
2018/2/7,5:00:00,-10.1,#N/A,79.3,0,0,,,,,,,,
2018/2/7,6:00:00,-11,#N/A,74.5,0,0,,,,,,,,
2018/2/7,7:00:00,-12.5,#N/A,73.9,0,0.01,,,,,,,,
2018/2/7,8:00:00,-9.7,#N/A,73,0,0.1,,,,,,,,
2018/2/7,9:00:00,-8.4,#N/A,63.6,0,0.2,,,,,,,,
2018/2/7,10:00:00,-8.3,#N/A,56,0,0.34,,,,,,,,
2018/2/7,11:00:00,-8,#N/A,55.3,0,0.43,,,,,,,,
2018/2/7,12:00:00,-7.8,#N/A,45.3,0,0.64,,,,,,,,
2018/2/7,13:00:00,-6.5,#N/A,44,0,0.64,,,,,,,,
2018/2/7,14:00:00,-5.7,#N/A,42,0,0.57,,,,,,,,
2018/2/7,15:00:00,-6.4,#N/A,43.3,0,0.41,,,,,,,,
2018/2/7,16:00:00,-6.6,#N/A,48.6,0,0.25,,,,,,,,
2018/2/7,17:00:00,-5.4,#N/A,57.2,0,0.03,,,,,,,,
2018/2/7,18:00:00,-4.9,#N/A,53.5,0,0,,,,,,,,
2018/2/7,19:00:00,-5.9,#N/A,58.3,0,0,,,,,,,,
2018/2/7,20:00:00,-6,#N/A,58.1,0,0,,,,,,,,
2018/2/7,21:00:00,-13.8,#N/A,60.9,0,0,,,,,,,,
2018/2/7,22:00:00,-16.2,#N/A,70.4,0,0,,,,,,,,
2018/2/7,23:00:00,-16.8,#N/A,79.5,0,0,,,,,,,,
2018/2/7,0:00:00,-14,#N/A,85.4,0,0,,,,,,,,
2018/2/8,1:00:00,-11.6,#N/A,92.6,0,0,,,,,,,,
2018/2/8,2:00:00,-12.1,#N/A,80.2,0,0,,,,,,,,
2018/2/8,3:00:00,-14.1,#N/A,78.8,0,0,,,,,,,,
2018/2/8,4:00:00,-14.7,#N/A,82.8,0,0,,,,,,,,
2018/2/8,5:00:00,-18.1,#N/A,80.7,0,0,,,,,,,,
2018/2/8,6:00:00,-17.4,#N/A,84.6,0,0,,,,,,,,
2018/2/8,7:00:00,-16.2,#N/A,91.2,0,0.01,,,,,,,,
2018/2/8,8:00:00,-14.3,#N/A,85.9,0,0.14,,,,,,,,
2018/2/8,9:00:00,-11.3,#N/A,59.1,0,0.38,,,,,,,,
2018/2/8,10:00:00,-4.4,#N/A,36.1,0,0.54,,,,,,,,
2018/2/8,11:00:00,-2.2,#N/A,30.7,0,0.64,,,,,,,,
2018/2/8,12:00:00,0.3,�k,31,0,0.68,,,,,,,,
2018/2/8,13:00:00,0.9,�k,30.4,0,0.66,,,,,,,,
2018/2/8,14:00:00,0.2,�k,46.5,0,0.6,,,,,,,,
2018/2/8,15:00:00,-0.9,#N/A,52.2,0.5,0.44,,,,,,,,
2018/2/8,16:00:00,-3.7,#N/A,55.9,0,0.25,,,,,,,,
2018/2/8,17:00:00,-8.1,#N/A,52.3,0,0.03,,,,,,,,
2018/2/8,18:00:00,-3.5,#N/A,76.1,0,0,,,,,,,,
2018/2/8,19:00:00,-6.1,#N/A,82.1,0,0,,,,,,,,
2018/2/8,20:00:00,-11.8,#N/A,75.6,0,0,,,,,,,,
2018/2/8,21:00:00,-12.1,#N/A,87.4,0,0,,,,,,,,
2018/2/8,22:00:00,-12.5,#N/A,90,0,0,,,,,,,,
2018/2/8,23:00:00,-9.5,#N/A,83.5,0,0,,,,,,,,
2018/2/8,0:00:00,-17.5,#N/A,80.6,0,0,,,,,,,,
2018/2/9,1:00:00,-15.8,#N/A,86.3,0,0,,,,,,,,
2018/2/9,2:00:00,-19.9,#N/A,87.2,0,0,,,,,,,,
2018/2/9,3:00:00,-18.6,#N/A,87.6,0,0,,,,,,,,
2018/2/9,4:00:00,-20,#N/A,84.8,0,0,,,,,,,,
2018/2/9,5:00:00,-19.9,#N/A,84.5,0,0,,,,,,,,
2018/2/9,6:00:00,-18,#N/A,87.8,0,0,,,,,,,,
2018/2/9,7:00:00,-18.9,#N/A,85.4,0,0.02,,,,,,,,
2018/2/9,8:00:00,-16.7,#N/A,86.3,0,0.17,,,,,,,,
2018/2/9,9:00:00,-12.8,#N/A,69.5,0,0.36,,,,,,,,
2018/2/9,10:00:00,-9.2,#N/A,49.9,0,0.54,,,,,,,,
2018/2/9,11:00:00,-2.7,#N/A,28.3,0,0.64,,,,,,,,
2018/2/9,12:00:00,-2,#N/A,29.3,0,0.69,,,,,,,,
2018/2/9,13:00:00,0.1,�k,26.1,0.5,0.66,,,,,,,,
2018/2/9,14:00:00,1.5,�k�k��,28.4,0.5,0.58,,,,,,,,
2018/2/9,15:00:00,-0.8,#N/A,29.5,0,0.44,,,,,,,,
2018/2/9,16:00:00,-2.6,#N/A,43.1,0,0.25,,,,,,,,
2018/2/9,17:00:00,-13.8,#N/A,49.1,0,0.05,,,,,,,,
2018/2/9,18:00:00,-13.3,#N/A,63.1,0,0,,,,,,,,
2018/2/9,19:00:00,-13.4,#N/A,69.3,0,0,,,,,,,,
2018/2/9,20:00:00,-15.4,#N/A,79.6,0,0,,,,,,,,
2018/2/9,21:00:00,-12.5,#N/A,86.8,0,0,,,,,,,,
2018/2/9,22:00:00,-14.1,#N/A,83,0,0,,,,,,,,
2018/2/9,23:00:00,-14.3,#N/A,84.2,0,0,,,,,,,,
2018/2/9,0:00:00,-16.5,#N/A,82.6,0,0,,,,,,,,
2018/2/10,1:00:00,-15.8,#N/A,85.5,0,0,,,,,,,,
2018/2/10,2:00:00,-16.4,#N/A,85,0,0,,,,,,,,
2018/2/10,3:00:00,-17.9,#N/A,85.2,0,0,,,,,,,,
2018/2/10,4:00:00,-15.8,#N/A,89,0,0,,,,,,,,
2018/2/10,5:00:00,-16.4,#N/A,87.5,0,0,,,,,,,,
2018/2/10,6:00:00,-14.5,#N/A,90.1,0,0,,,,,,,,
2018/2/10,7:00:00,-14.3,#N/A,87.4,0,0.02,,,,,,,,
2018/2/10,8:00:00,-11.7,#N/A,89.6,0,0.1,,,,,,,,
2018/2/10,9:00:00,-9,#N/A,68.1,0,0.22,,,,,,,,
2018/2/10,10:00:00,-2.8,#N/A,72.6,0,0.33,,,,,,,,
2018/2/10,11:00:00,1.9,�k�k��,51.5,0,0.58,,,,,,,,
2018/2/10,12:00:00,2.8,�k��,55.5,1,0.39,,,,,,,,
2018/2/10,13:00:00,3.3,���k��,67.4,1,0.32,,,,,,,,
2018/2/10,14:00:00,4.1,��,68.3,1,0.3,,,,,,,,
2018/2/10,15:00:00,1.5,�k�k��,64.3,0.5,0.19,,,,,,,,
2018/2/10,16:00:00,-0.5,#N/A,78.1,0,0.09,,,,,,,,
2018/2/10,17:00:00,-0.8,#N/A,84.7,0,0.02,,,,,,,,
2018/2/10,18:00:00,-1.4,#N/A,87,0,0,,,,,,,,
2018/2/10,19:00:00,-2.2,#N/A,88.6,0,0,,,,,,,,
2018/2/10,20:00:00,-2.5,#N/A,89.7,0,0,,,,,,,,
2018/2/10,21:00:00,-2.1,#N/A,91,0,0,,,,,,,,
2018/2/10,22:00:00,-3,#N/A,89,0,0,,,,,,,,
2018/2/10,23:00:00,-4.3,#N/A,88.1,0,0,,,,,,,,
2018/2/10,0:00:00,-3.2,#N/A,92.6,0,0,,,,,,,,
2018/2/11,1:00:00,1.3,�k�k��,93.4,0,0,,,,,,,,
2018/2/11,2:00:00,-1,#N/A,86.4,0,0,,,,,,,,
2018/2/11,3:00:00,-2.1,#N/A,85.6,0,0,,,,,,,,
2018/2/11,4:00:00,-1.9,#N/A,90.9,0,0,,,,,,,,
2018/2/11,5:00:00,-3,#N/A,89.6,0,0,,,,,,,,
2018/2/11,6:00:00,-8.2,#N/A,81.2,0,0,,,,,,,,
2018/2/11,7:00:00,-7.6,#N/A,88.5,0,0.01,,,,,,,,
2018/2/11,8:00:00,-7.2,#N/A,94.1,0,0.04,,,,,,,,
2018/2/11,9:00:00,-3.6,#N/A,77.5,0,0.31,,,,,,,,
2018/2/11,10:00:00,0.6,�k,52,0,0.49,,,,,,,,
2018/2/11,11:00:00,2.3,�k��,49.6,0,0.34,,,,,,,,
2018/2/11,12:00:00,2.1,�k��,47.7,0,0.56,,,,,,,,
2018/2/11,13:00:00,1.3,�k�k��,59.1,0,0.54,,,,,,,,
2018/2/11,14:00:00,1.4,�k�k��,65.7,0,0.51,,,,,,,,
2018/2/11,15:00:00,-0.2,#N/A,63.7,0,0.29,,,,,,,,
2018/2/11,16:00:00,0.3,�k,69.5,0,0.19,,,,,,,,
2018/2/11,17:00:00,-1.6,#N/A,64.6,0,0.04,,,,,,,,
2018/2/11,18:00:00,-3.5,#N/A,65.7,0,0,,,,,,,,
2018/2/11,19:00:00,-4.8,#N/A,64.6,0,0,,,,,,,,
2018/2/11,20:00:00,-4,#N/A,60.1,0,0,,,,,,,,
2018/2/11,21:00:00,-4.9,#N/A,54.7,0,0,,,,,,,,
2018/2/11,22:00:00,-5.6,#N/A,43.6,0,0,,,,,,,,
2018/2/11,23:00:00,-6.7,#N/A,43.2,0,0,,,,,,,,
2018/2/11,0:00:00,-8.1,#N/A,41.2,0,0,,,,,,,,
2018/2/12,1:00:00,-9,#N/A,42.9,0,0,,,,,,,,
2018/2/12,2:00:00,-12.6,#N/A,46.4,0,0,,,,,,,,
2018/2/12,3:00:00,-18.3,#N/A,53,0,0,,,,,,,,
2018/2/12,4:00:00,-18.7,#N/A,61.7,0,0,,,,,,,,
2018/2/12,5:00:00,-14.6,#N/A,66.4,0,0,,,,,,,,
2018/2/12,6:00:00,-13.5,#N/A,63.7,0,0,,,,,,,,
2018/2/12,7:00:00,-14.1,#N/A,63.3,0,0.03,,,,,,,,
2018/2/12,8:00:00,-12.4,#N/A,47,0,0.17,,,,,,,,
2018/2/12,9:00:00,-7.6,#N/A,34.9,0,0.39,,,,,,,,
2018/2/12,10:00:00,-6.7,#N/A,32.8,0,0.56,,,,,,,,
2018/2/12,11:00:00,-6.5,#N/A,34.5,0,0.48,,,,,,,,
2018/2/12,12:00:00,-5.4,#N/A,33.3,0,0.6,,,,,,,,
2018/2/12,13:00:00,-4.9,#N/A,27.9,0,0.78,,,,,,,,
2018/2/12,14:00:00,-5.6,#N/A,31.2,0,0.57,,,,,,,,
2018/2/12,15:00:00,-6.3,#N/A,32.7,0,0.34,,,,,,,,
2018/2/12,16:00:00,-6.9,#N/A,33.7,0,0.17,,,,,,,,
2018/2/12,17:00:00,-8.5,#N/A,36.8,0,0.03,,,,,,,,
2018/2/12,18:00:00,-8.8,#N/A,51.4,0,0,,,,,,,,
2018/2/12,19:00:00,-10.8,#N/A,50.7,0,0,,,,,,,,
2018/2/12,20:00:00,-14.5,#N/A,54.3,0,0,,,,,,,,
2018/2/12,21:00:00,-15.7,#N/A,56.6,0,0,,,,,,,,
2018/2/12,22:00:00,-21.1,#N/A,59.9,0,0,,,,,,,,
2018/2/12,23:00:00,-24,#N/A,59.1,0,0,,,,,,,,
2018/2/12,0:00:00,-23.5,#N/A,69.6,0,0,,,,,,,,
2018/2/13,1:00:00,-23.6,#N/A,75,0,0,,,,,,,,
2018/2/13,2:00:00,-23.5,#N/A,73.6,0,0,,,,,,,,
2018/2/13,3:00:00,-21.6,#N/A,73,0,0,,,,,,,,
2018/2/13,4:00:00,-20.6,#N/A,75.3,0,0,,,,,,,,
2018/2/13,5:00:00,-20.6,#N/A,70.6,0,0,,,,,,,,
2018/2/13,6:00:00,-21.2,#N/A,68.7,0,0.01,,,,,,,,
2018/2/13,7:00:00,-21,#N/A,71.1,0,0.03,,,,,,,,
2018/2/13,8:00:00,-19.7,#N/A,60.2,0,0.19,,,,,,,,
2018/2/13,9:00:00,-14.8,#N/A,44.7,0,0.38,,,,,,,,
2018/2/13,10:00:00,-6.8,#N/A,32.9,0,0.45,,,,,,,,
2018/2/13,11:00:00,-6,#N/A,29.4,0,0.46,,,,,,,,
2018/2/13,12:00:00,-5.5,#N/A,23,0,0.58,,,,,,,,
2018/2/13,13:00:00,-5.1,#N/A,19.9,0,0.54,,,,,,,,
2018/2/13,14:00:00,-4.9,#N/A,32.4,0,0.43,,,,,,,,
2018/2/13,15:00:00,-5.8,#N/A,33.3,0,0.51,,,,,,,,
2018/2/13,16:00:00,-6.8,#N/A,36.2,0,0.25,,,,,,,,
2018/2/13,17:00:00,-9,#N/A,41.4,0,0.05,,,,,,,,
2018/2/13,18:00:00,-16,#N/A,42.9,0,0,,,,,,,,
2018/2/13,19:00:00,-17.9,#N/A,52.2,0,0,,,,,,,,
2018/2/13,20:00:00,-15.5,#N/A,67.4,0,0,,,,,,,,
2018/2/13,21:00:00,-19.9,#N/A,67.2,0,0,,,,,,,,
2018/2/13,22:00:00,-20.9,#N/A,73.4,0,0,,,,,,,,
2018/2/13,23:00:00,-22.6,#N/A,74,0,0,,,,,,,,
2018/2/13,0:00:00,-22,#N/A,77,0,0,,,,,,,,
2018/2/14,1:00:00,-22.9,#N/A,76.2,0,0,,,,,,,,
2018/2/14,2:00:00,-22,#N/A,77.4,0,0,,,,,,,,
2018/2/14,3:00:00,-22.4,#N/A,78.6,0,0,,,,,,,,
2018/2/14,4:00:00,-22.1,#N/A,77.6,0,0,,,,,,,,
2018/2/14,5:00:00,-23.7,#N/A,76.8,0,0.01,,,,,,,,
2018/2/14,6:00:00,-20.9,#N/A,80.3,0,0,,,,,,,,
2018/2/14,7:00:00,-17.8,#N/A,79.6,0,0.03,,,,,,,,
2018/2/14,8:00:00,-10,#N/A,45.9,0,0.21,,,,,,,,
2018/2/14,9:00:00,-5.5,#N/A,31.6,0,0.41,,,,,,,,
2018/2/14,10:00:00,-3,#N/A,25.4,0,0.57,,,,,,,,
2018/2/14,11:00:00,-1.6,#N/A,25.9,0,0.67,,,,,,,,
2018/2/14,12:00:00,-0.9,#N/A,27.3,0,0.7,,,,,,,,
2018/2/14,13:00:00,-0.6,#N/A,31.6,0,0.53,,,,,,,,
2018/2/14,14:00:00,-0.5,#N/A,37,0,0.58,,,,,,,,
2018/2/14,15:00:00,-0.8,#N/A,41.1,0,0.41,,,,,,,,
2018/2/14,16:00:00,-1.8,#N/A,50.9,0,0.18,,,,,,,,
2018/2/14,17:00:00,-3.2,#N/A,64.8,0,0.03,,,,,,,,
2018/2/14,18:00:00,-3.3,#N/A,76.2,0,0,,,,,,,,
2018/2/14,19:00:00,-2.1,#N/A,86.1,0,0,,,,,,,,
2018/2/14,20:00:00,-1.9,#N/A,88.5,0,0,,,,,,,,
2018/2/14,21:00:00,-3.1,#N/A,88.8,0,0,,,,,,,,
2018/2/14,22:00:00,-3.3,#N/A,88.8,0,0,,,,,,,,
2018/2/14,23:00:00,-3.8,#N/A,89.7,0,0,,,,,,,,
2018/2/14,0:00:00,-3.7,#N/A,92,0,0,,,,,,,,
2018/2/15,1:00:00,-4,#N/A,90,0,0,,,,,,,,
2018/2/15,2:00:00,-4.6,#N/A,92.5,0,0,,,,,,,,
2018/2/15,3:00:00,-4,#N/A,92,0,0,,,,,,,,
2018/2/15,4:00:00,-3.5,#N/A,84.9,0,0,,,,,,,,
2018/2/15,5:00:00,-4.6,#N/A,68.4,0,0,,,,,,,,
2018/2/15,6:00:00,-5.1,#N/A,61.2,0,0,,,,,,,,
2018/2/15,7:00:00,-5.7,#N/A,59.2,0,0.01,,,,,,,,
2018/2/15,8:00:00,-6.5,#N/A,55.7,0,0.16,,,,,,,,
2018/2/15,9:00:00,-4.4,#N/A,42.9,0,0.41,,,,,,,,
2018/2/15,10:00:00,-2.7,#N/A,32.9,0,0.56,,,,,,,,
2018/2/15,11:00:00,-1.8,#N/A,26.8,0.5,0.71,,,,,,,,
2018/2/15,12:00:00,-1.2,#N/A,29.8,1,0.44,,,,,,,,
2018/2/15,13:00:00,-1.4,#N/A,24.8,0.5,0.66,,,,,,,,
2018/2/15,14:00:00,-2.6,#N/A,31.2,0,0.49,,,,,,,,
2018/2/15,15:00:00,-2.3,#N/A,33.3,0,0.27,,,,,,,,
2018/2/15,16:00:00,-3.6,#N/A,31.9,0,0.19,,,,,,,,
2018/2/15,17:00:00,-7.6,#N/A,43.1,0,0.06,,,,,,,,
2018/2/15,18:00:00,-10.5,#N/A,54.1,0,0,,,,,,,,
2018/2/15,19:00:00,-9.4,#N/A,62.8,0,0,,,,,,,,
2018/2/15,20:00:00,-16.9,#N/A,61.4,0,0,,,,,,,,
2018/2/15,21:00:00,-16,#N/A,71.8,0,0,,,,,,,,
2018/2/15,22:00:00,-17.8,#N/A,76.7,0,0,,,,,,,,
2018/2/15,23:00:00,-15.3,#N/A,84,0,0,,,,,,,,
2018/2/15,0:00:00,-16.1,#N/A,79.9,0,0,,,,,,,,
2018/2/16,1:00:00,-16.7,#N/A,84.2,0,0,,,,,,,,
2018/2/16,2:00:00,-15.8,#N/A,86.7,0,0,,,,,,,,
2018/2/16,3:00:00,-17.8,#N/A,84.7,0,0,,,,,,,,
2018/2/16,4:00:00,-19.9,#N/A,79.9,0,0,,,,,,,,
2018/2/16,5:00:00,-18.8,#N/A,87.8,0,0,,,,,,,,
2018/2/16,6:00:00,-18.9,#N/A,85.8,0,0,,,,,,,,
2018/2/16,7:00:00,-18.6,#N/A,87.3,0,0.04,,,,,,,,
2018/2/16,8:00:00,-14.2,#N/A,77.1,0,0.22,,,,,,,,
2018/2/16,9:00:00,-9.9,#N/A,55.7,0,0.42,,,,,,,,
2018/2/16,10:00:00,-3.7,#N/A,32,0,0.58,,,,,,,,
2018/2/16,11:00:00,-1.6,#N/A,18.4,0,0.68,,,,,,,,
2018/2/16,12:00:00,-1.5,#N/A,25,0,0.72,,,,,,,,
2018/2/16,13:00:00,-0.7,#N/A,23.9,0,0.73,,,,,,,,
2018/2/16,14:00:00,-1.2,#N/A,24.6,0,0.63,,,,,,,,
2018/2/16,15:00:00,-1.4,#N/A,31.2,0,0.49,,,,,,,,
2018/2/16,16:00:00,-2.8,#N/A,38.5,0,0.29,,,,,,,,
2018/2/16,17:00:00,-5.9,#N/A,45,0,0.06,,,,,,,,
2018/2/16,18:00:00,-6,#N/A,57.7,0,0,,,,,,,,
2018/2/16,19:00:00,-8.9,#N/A,70.7,0,0,,,,,,,,
2018/2/16,20:00:00,-13.6,#N/A,68.4,0,0,,,,,,,,
2018/2/16,21:00:00,-16.2,#N/A,67.3,0,0,,,,,,,,
2018/2/16,22:00:00,-16.1,#N/A,78.4,0,0,,,,,,,,
2018/2/16,23:00:00,-16.3,#N/A,83.7,0,0,,,,,,,,
2018/2/16,0:00:00,-17.1,#N/A,84.4,0,0,,,,,,,,
2018/2/17,1:00:00,-15.2,#N/A,90.9,0,0,,,,,,,,
2018/2/17,2:00:00,-15.9,#N/A,90.8,0,0,,,,,,,,
2018/2/17,3:00:00,-16.3,#N/A,88.7,0,0,,,,,,,,
2018/2/17,4:00:00,-17.9,#N/A,86.8,0,0,,,,,,,,
2018/2/17,5:00:00,-17.5,#N/A,87.1,0,0,,,,,,,,
2018/2/17,6:00:00,-14.2,#N/A,93.5,0,0,,,,,,,,
2018/2/17,7:00:00,-11.7,#N/A,93.9,0,0.01,,,,,,,,
2018/2/17,8:00:00,-10.1,#N/A,93.4,0,0.08,,,,,,,,
2018/2/17,9:00:00,-7.9,#N/A,87.1,0,0.18,,,,,,,,
2018/2/17,10:00:00,-6.7,#N/A,79.2,0,0.17,,,,,,,,
2018/2/17,11:00:00,-6.8,#N/A,90.3,0,0.1,,,,,,,,
2018/2/17,12:00:00,-5.5,#N/A,78.2,0,0.38,,,,,,,,
2018/2/17,13:00:00,-3.8,#N/A,60.6,0,0.65,,,,,,,,
2018/2/17,14:00:00,-3.3,#N/A,59.3,0,0.58,,,,,,,,
2018/2/17,15:00:00,-3.5,#N/A,54.5,0,0.3,,,,,,,,
2018/2/17,16:00:00,-4.7,#N/A,70.6,0.5,0.1,,,,,,,,
2018/2/17,17:00:00,-4.6,#N/A,84.1,1,0.03,,,,,,,,
2018/2/17,18:00:00,-6.6,#N/A,85.7,0,0,,,,,,,,
2018/2/17,19:00:00,-10.2,#N/A,81.8,0,0,,,,,,,,
2018/2/17,20:00:00,-14,#N/A,77.9,0,0,,,,,,,,
2018/2/17,21:00:00,-13.5,#N/A,89.5,0,0,,,,,,,,
2018/2/17,22:00:00,-8.1,#N/A,96.5,0,0,,,,,,,,
2018/2/17,23:00:00,-6.8,#N/A,96.4,0,0,,,,,,,,
2018/2/17,0:00:00,-5.5,#N/A,67.5,0,0,,,,,,,,
2018/2/18,1:00:00,-5.6,#N/A,64.4,0,0,,,,,,,,
2018/2/18,2:00:00,-6.3,#N/A,58.9,0,0,,,,,,,,
2018/2/18,3:00:00,-7.1,#N/A,65.2,0,0,,,,,,,,
2018/2/18,4:00:00,-7.4,#N/A,60.6,0,0,,,,,,,,
2018/2/18,5:00:00,-7.2,#N/A,55.9,0,0,,,,,,,,
2018/2/18,6:00:00,-7,#N/A,49.9,0,0,,,,,,,,
2018/2/18,7:00:00,-6.3,#N/A,52,0,0.04,,,,,,,,
2018/2/18,8:00:00,-6.6,#N/A,49.5,0,0.12,,,,,,,,
2018/2/18,9:00:00,-6.7,#N/A,44.5,0,0.2,,,,,,,,
2018/2/18,10:00:00,-4.9,#N/A,35.9,0,0.52,,,,,,,,
2018/2/18,11:00:00,-4.4,#N/A,33.4,0,0.69,,,,,,,,
2018/2/18,12:00:00,-3.4,#N/A,30.5,0,0.74,,,,,,,,
2018/2/18,13:00:00,-3.2,#N/A,29.6,0,0.72,,,,,,,,
2018/2/18,14:00:00,-3.1,#N/A,29.4,0,0.64,,,,,,,,
2018/2/18,15:00:00,-3.6,#N/A,29.4,0,0.51,,,,,,,,
2018/2/18,16:00:00,-4.4,#N/A,36.3,0,0.31,,,,,,,,
2018/2/18,17:00:00,-5.6,#N/A,37.9,0,0.1,,,,,,,,
2018/2/18,18:00:00,-6.1,#N/A,43.8,0,0.01,,,,,,,,
2018/2/18,19:00:00,-7,#N/A,48.4,0,0,,,,,,,,
2018/2/18,20:00:00,-8.4,#N/A,51.6,0,0,,,,,,,,
2018/2/18,21:00:00,-15,#N/A,50.2,0,0,,,,,,,,
2018/2/18,22:00:00,-17.9,#N/A,57.3,0,0,,,,,,,,
2018/2/18,23:00:00,-17.1,#N/A,63.2,0,0,,,,,,,,
2018/2/18,0:00:00,-16.9,#N/A,68.1,0,0,,,,,,,,
2018/2/19,1:00:00,-18.5,#N/A,71.9,0,0,,,,,,,,
2018/2/19,2:00:00,-20.1,#N/A,74.7,0,0,,,,,,,,
2018/2/19,3:00:00,-21.7,#N/A,78.6,0,0,,,,,,,,
2018/2/19,4:00:00,-21,#N/A,82.5,0,0,,,,,,,,
2018/2/19,5:00:00,-20.6,#N/A,81.3,0,0,,,,,,,,
2018/2/19,6:00:00,-22.4,#N/A,81.3,0,0,,,,,,,,
2018/2/19,7:00:00,-21.4,#N/A,82.4,0,0.05,,,,,,,,
2018/2/19,8:00:00,-17.5,#N/A,65.1,0,0.23,,,,,,,,
2018/2/19,9:00:00,-14.1,#N/A,52.9,0,0.39,,,,,,,,
2018/2/19,10:00:00,-7.3,#N/A,28.5,0,0.62,,,,,,,,
2018/2/19,11:00:00,-5.3,#N/A,38.1,0,0.7,,,,,,,,
2018/2/19,12:00:00,-3.1,#N/A,55.8,0,0.74,,,,,,,,
2018/2/19,13:00:00,-2.5,#N/A,50.4,0,0.71,,,,,,,,
2018/2/19,14:00:00,-2.7,#N/A,33.5,0,0.53,,,,,,,,
2018/2/19,15:00:00,-3,#N/A,31.9,0,0.36,,,,,,,,
2018/2/19,16:00:00,-2.3,#N/A,39.1,0,0.28,,,,,,,,
2018/2/19,17:00:00,-5.3,#N/A,46.5,0,0.06,,,,,,,,
2018/2/19,18:00:00,-10.6,#N/A,56.4,0,0.01,,,,,,,,
2018/2/19,19:00:00,-15.1,#N/A,65,0,0,,,,,,,,
2018/2/19,20:00:00,-15.2,#N/A,77.1,0,0,,,,,,,,
2018/2/19,21:00:00,-15.2,#N/A,82.4,0,0,,,,,,,,
2018/2/19,22:00:00,-14.3,#N/A,85.9,0,0,,,,,,,,
2018/2/19,23:00:00,-16,#N/A,85.6,0,0,,,,,,,,
2018/2/19,0:00:00,-13.6,#N/A,85.8,0,0,,,,,,,,
2018/2/20,1:00:00,-16.5,#N/A,76.2,0,0,,,,,,,,
2018/2/20,2:00:00,-16.4,#N/A,82.6,0,0,,,,,,,,
2018/2/20,3:00:00,-17.8,#N/A,84.6,0,0,,,,,,,,
2018/2/20,4:00:00,-18.1,#N/A,88,0,0,,,,,,,,
2018/2/20,5:00:00,-18.9,#N/A,84.6,0,0,,,,,,,,
2018/2/20,6:00:00,-19,#N/A,87,0,0.01,,,,,,,,
2018/2/20,7:00:00,-19.6,#N/A,84.1,0,0.05,,,,,,,,
2018/2/20,8:00:00,-15.5,#N/A,66.5,0,0.25,,,,,,,,
2018/2/20,9:00:00,-9.7,#N/A,44.6,0,0.45,,,,,,,,
2018/2/20,10:00:00,-3.2,#N/A,29.3,0,0.61,,,,,,,,
2018/2/20,11:00:00,-2.3,#N/A,18.1,0,0.71,,,,,,,,
2018/2/20,12:00:00,-2.1,#N/A,25.2,0,0.76,,,,,,,,
2018/2/20,13:00:00,-1.7,#N/A,25.4,0,0.74,,,,,,,,
2018/2/20,14:00:00,-1.8,#N/A,27.7,0,0.55,,,,,,,,
2018/2/20,15:00:00,-2.4,#N/A,32.8,0,0.42,,,,,,,,
2018/2/20,16:00:00,-4,#N/A,43.4,0,0.19,,,,,,,,
2018/2/20,17:00:00,-5.6,#N/A,54.2,0,0.04,,,,,,,,
2018/2/20,18:00:00,-6.3,#N/A,68.8,0,0.01,,,,,,,,
2018/2/20,19:00:00,-10.4,#N/A,66.7,0,0,,,,,,,,
2018/2/20,20:00:00,-10.5,#N/A,83.7,0,0,,,,,,,,
2018/2/20,21:00:00,-13.4,#N/A,82.1,0,0,,,,,,,,
2018/2/20,22:00:00,-16.8,#N/A,78.7,0,0,,,,,,,,
2018/2/20,23:00:00,-18.9,#N/A,79.5,0,0,,,,,,,,
2018/2/20,0:00:00,-20.5,#N/A,82.1,0,0,,,,,,,,
2018/2/21,1:00:00,-19.3,#N/A,85.8,0,0,,,,,,,,
2018/2/21,2:00:00,-19,#N/A,85,0,0,,,,,,,,
2018/2/21,3:00:00,-19.3,#N/A,86.9,0,0,,,,,,,,
2018/2/21,4:00:00,-20.8,#N/A,84.9,0,0,,,,,,,,
2018/2/21,5:00:00,-21.3,#N/A,79.1,0,0,,,,,,,,
2018/2/21,6:00:00,-21.2,#N/A,85.1,0,0.01,,,,,,,,
2018/2/21,7:00:00,-19.5,#N/A,88.5,0,0.05,,,,,,,,
2018/2/21,8:00:00,-16.9,#N/A,81.7,0,0.25,,,,,,,,
2018/2/21,9:00:00,-13,#N/A,57.7,0,0.47,,,,,,,,
2018/2/21,10:00:00,-5.1,#N/A,30.6,0,0.62,,,,,,,,
2018/2/21,11:00:00,-4.7,#N/A,12.6,0,0.62,,,,,,,,
2018/2/21,12:00:00,-3.5,#N/A,21,0,0.63,,,,,,,,
2018/2/21,13:00:00,-3.5,#N/A,23.7,0,0.76,,,,,,,,
2018/2/21,14:00:00,-3.8,#N/A,25.9,0,0.65,,,,,,,,
2018/2/21,15:00:00,-4.2,#N/A,30.4,0,0.49,,,,,,,,
2018/2/21,16:00:00,-4.9,#N/A,29.4,0,0.38,,,,,,,,
2018/2/21,17:00:00,-7.6,#N/A,34.5,0,0.05,,,,,,,,
2018/2/21,18:00:00,-13,#N/A,39.7,0,0.01,,,,,,,,
2018/2/21,19:00:00,-16.5,#N/A,53.3,0,0,,,,,,,,
2018/2/21,20:00:00,-15.5,#N/A,66.6,0,0,,,,,,,,
2018/2/21,21:00:00,-15.7,#N/A,77.1,0,0,,,,,,,,